Погода в Новорыбной

Россия / Красноярский край     72°50′08″N   105°47′54″E
темп.,
°C
ветер,
м/с
пор.,
м/с
влажн.,
%
обл.,
%
осадки,
мм/ч
давл.,
гПа
погр.,
м
18 апреля, вс
вс1801:00−16зсз3494100 0.0 100857
04:00−16з4692100 0.0 1010102
07:00−15зюз4791100 0.0 1011210
10:00−14зюз6888100 0.0 1013344
13:00−13з6887100 0.0 1014454
16:00−12з6886100 0.0 1015478
19:00−13з588975 0.0 1016295
22:00−15з489691 0.1 1017178
19 апреля, пн
пн1901:00−15з589687 0.2 1018197
04:00−16зюз589679 0.1 1018193
07:00−16зюз699583 0.2 1019263
10:00−16зюз699072 0.0 1019317
13:00−15зюз688968 0.0 1019339
16:00−15зюз489133 0.0 1020231
19:00−20зюз339755 0.0 102026
22:00−25юз2210044 0.0 102010
20 апреля, вт
вт2001:00−26ююз2210094 0.0 102110
04:00−28ююз2210095 0.0 10219
07:00−24ююз1110081 0.0 102220
10:00−18всв009259 0.0 102264
13:00−15всв118864 0.0 102299
16:00−15св119299 0.0 102221
19:00−19всв1196100 0.0 10239
22:00−22всв0010093 0.0 10239
21 апреля, ср
ср2101:00−23ююз11100100 0.0 10239
04:00−21юз2298100 0.0 102326
07:00−18зюз239490 0.0 102381
10:00−16зюз359269 0.0 1023166
13:00−14зюз469083 0.0 1023263
16:00−13зюз4791100 0.0 1023289
19:00−13юз4792100 0.0 1023176
22:00−13юз499396 0.0 1022197
22 апреля, чт
чт2201:00−13юз5109386 0.0 1021277
04:00−13юз6119498 0.1 1020294
07:00−11ююз61194100 0.3 1018436
10:00−8юз71194100 0.7 1016582
13:00−6юз6993100 1.3 1014652
16:00−4зюз5795100 0.5 1014435
19:00−3зюз2597100 0.9 1014163
22:000зсз51099100 0.7 1014456